• In Uzbekistan
  • List of Countries
  • For 7 days
  • Water Temperature
  • Satellite Maps
  • Weather Map
  • Weather Widgets
  • user-avatar
    Login

    Hourly Weather Kerns

    Today, 23 January, Monday

    Time Temperature Precipitation Wind Pressure Humidity
    00:00 +27°C° 0 mm 2 mps 756 mmHg 95%
    01:00 +27°C° 0 mm 2 mps 756 mmHg 95%
    02:00 +27°C° 0 mm 2 mps 756 mmHg 96%
    03:00 +27°C° 0 mm 2 mps 756 mmHg 96%
    04:00 +27°C° 0 mm 2 mps 756 mmHg 96%
    05:00 +27°C° 0 mm 2 mps 756 mmHg 95%
    06:00 +28°C° 0 mm 2 mps 756 mmHg 94%
    07:00 +28°C° 0 mm 2 mps 757 mmHg 93%
    08:00 +29°C° 0.1 mm 3 mps 757 mmHg 88%
    09:00 +30°C° 0.1 mm 3 mps 757 mmHg 83%
    10:00 +31°C° 0 mm 3 mps 757 mmHg 76%
    11:00 +33°C° 0.1 mm 3 mps 757 mmHg 69%
    12:00 +35°C° 0.1 mm 4 mps 757 mmHg 63%
    13:00 +36°C° 0.1 mm 4 mps 756 mmHg 57%
    14:00 +35°C° 0 mm 4 mps 756 mmHg 57%
    15:00 +35°C° 0 mm 4 mps 756 mmHg 57%
    16:00 +35°C° 0 mm 4 mps 756 mmHg 57%
    17:00 +33°C° 0 mm 4 mps 756 mmHg 67%
    18:00 +30°C° 0 mm 3 mps 756 mmHg 76%
    19:00 +28°C° 0 mm 3 mps 756 mmHg 85%
    20:00 +27°C° 0 mm 3 mps 757 mmHg 89%
    21:00 +27°C° 0 mm 3 mps 757 mmHg 92%
    22:00 +26°C° 0 mm 3 mps 758 mmHg 96%
    23:00 +26°C° 0.3 mm 3 mps 758 mmHg 96%

    Tomorrow, 24 January, Tuesday

    Time Temperature Precipitation Wind Pressure Humidity
    00:00 +25°C° 0.3 mm 3 mps 757 mmHg 96%
    01:00 +25°C° 0.3 mm 3 mps 757 mmHg 97%
    02:00 +26°C° 0.3 mm 2 mps 757 mmHg 97%
    03:00 +26°C° 0.3 mm 2 mps 757 mmHg 96%
    04:00 +26°C° 0.3 mm 2 mps 757 mmHg 96%
    05:00 +27°C° 0.4 mm 2 mps 757 mmHg 95%
    06:00 +27°C° 0.4 mm 2 mps 757 mmHg 94%
    07:00 +28°C° 0.4 mm 2 mps 757 mmHg 93%
    08:00 +29°C° 0.3 mm 3 mps 757 mmHg 86%
    09:00 +30°C° 0.3 mm 3 mps 758 mmHg 79%
    10:00 +33°C° 0.3 mm 3 mps 758 mmHg 72%
    11:00 +34°C° 0.4 mm 3 mps 757 mmHg 67%
    12:00 +35°C° 0.4 mm 3 mps 757 mmHg 61%
    13:00 +36°C° 0.4 mm 3 mps 756 mmHg 55%
    14:00 +36°C° 0.2 mm 3 mps 756 mmHg 56%
    15:00 +36°C° 0.2 mm 3 mps 756 mmHg 57%
    16:00 +35°C° 0.2 mm 3 mps 755 mmHg 58%
    17:00 +33°C° 0 mm 3 mps 756 mmHg 68%
    18:00 +31°C° 0 mm 3 mps 756 mmHg 77%
    19:00 +29°C° 0 mm 2 mps 757 mmHg 87%
    20:00 +28°C° 0.1 mm 2 mps 757 mmHg 90%
    21:00 +27°C° 0.1 mm 2 mps 758 mmHg 94%
    22:00 +26°C° 0.1 mm 2 mps 758 mmHg 98%
    23:00 +26°C° 0.4 mm 2 mps 758 mmHg 98%

    Day after tomorrow, 25 January, Wednesday

    Time Temperature Precipitation Wind Pressure Humidity
    00:00 +26°C° 0.4 mm 2 mps 758 mmHg 97%
    01:00 +26°C° 0.4 mm 2 mps 757 mmHg 97%
    02:00 +26°C° 0.6 mm 2 mps 757 mmHg 97%
    03:00 +26°C° 0.6 mm 2 mps 757 mmHg 96%
    04:00 +26°C° 0.6 mm 2 mps 757 mmHg 96%
    05:00 +26°C° 0.4 mm 3 mps 757 mmHg 94%
    06:00 +26°C° 0.4 mm 3 mps 757 mmHg 93%
    07:00 +27°C° 0.4 mm 3 mps 758 mmHg 91%
    08:00 +29°C° 0 mm 3 mps 758 mmHg 82%
    09:00 +31°C° 0 mm 3 mps 758 mmHg 73%
    10:00 +34°C° 0 mm 3 mps 758 mmHg 64%
    11:00 +34°C° 0.2 mm 3 mps 757 mmHg 64%
    12:00 +35°C° 0.2 mm 4 mps 757 mmHg 65%
    13:00 +35°C° 0.2 mm 4 mps 756 mmHg 65%
    14:00 +35°C° 0.3 mm 4 mps 756 mmHg 66%
    15:00 +34°C° 0.3 mm 4 mps 756 mmHg 68%
    16:00 +34°C° 0.3 mm 4 mps 755 mmHg 69%
    17:00 +33°C° 0 mm 4 mps 756 mmHg 75%
    18:00 +30°C° 0 mm 3 mps 756 mmHg 80%
    19:00 +29°C° 0 mm 3 mps 756 mmHg 86%
    20:00 +28°C° 0.4 mm 3 mps 757 mmHg 89%
    21:00 +28°C° 0.4 mm 2 mps 757 mmHg 93%
    22:00 +27°C° 0.4 mm 2 mps 758 mmHg 96%
    23:00 +27°C° 0.8 mm 2 mps 757 mmHg 96%

    26 January, Thursday

    Time Temperature Precipitation Wind Pressure Humidity
    00:00 +27°C° 0.8 mm 2 mps 757 mmHg 97%
    01:00 +27°C° 0.8 mm 2 mps 757 mmHg 97%
    02:00 +26°C° 0.1 mm 2 mps 756 mmHg 97%
    03:00 +26°C° 0.1 mm 3 mps 756 mmHg 96%
    04:00 +26°C° 0.1 mm 3 mps 756 mmHg 96%
    05:00 +27°C° 0 mm 3 mps 756 mmHg 94%
    06:00 +27°C° 0 mm 3 mps 756 mmHg 92%
    07:00 +27°C° 0 mm 3 mps 757 mmHg 91%
    08:00 +29°C° 0 mm 3 mps 757 mmHg 82%
    09:00 +31°C° 0 mm 3 mps 757 mmHg 74%
    10:00 +34°C° 0 mm 3 mps 757 mmHg 66%
    11:00 +34°C° 0.2 mm 3 mps 757 mmHg 66%
    12:00 +34°C° 0.2 mm 4 mps 756 mmHg 66%
    13:00 +35°C° 0.2 mm 4 mps 756 mmHg 66%
    14:00 +35°C° 0.2 mm 4 mps 756 mmHg 66%
    15:00 +34°C° 0.2 mm 4 mps 755 mmHg 66%
    16:00 +34°C° 0.2 mm 4 mps 755 mmHg 66%
    17:00 +33°C° 0 mm 4 mps 755 mmHg 73%
    18:00 +30°C° 0 mm 3 mps 756 mmHg 81%
    19:00 +29°C° 0 mm 3 mps 756 mmHg 89%
    20:00 +28°C° 0.1 mm 3 mps 756 mmHg 91%
    21:00 +28°C° 0.1 mm 3 mps 757 mmHg 92%
    22:00 +28°C° 0.1 mm 3 mps 757 mmHg 94%
    23:00 +27°C° 0.4 mm 3 mps 757 mmHg 95%

    27 January, Friday

    Time Temperature Precipitation Wind Pressure Humidity
    00:00 +27°C° 0.4 mm 2 mps 757 mmHg 96%
    01:00 +27°C° 0.4 mm 2 mps 756 mmHg 97%
    02:00 +26°C° 0.2 mm 2 mps 756 mmHg 97%
    03:00 +26°C° 0.2 mm 2 mps 756 mmHg 97%
    04:00 +26°C° 0.2 mm 3 mps 755 mmHg 97%
    05:00 +26°C° 0 mm 3 mps 756 mmHg 95%
    06:00 +27°C° 0 mm 3 mps 756 mmHg 94%
    07:00 +27°C° 0 mm 3 mps 757 mmHg 92%
    08:00 +29°C° 0.1 mm 3 mps 757 mmHg 85%
    09:00 +30°C° 0.1 mm 3 mps 757 mmHg 77%
    10:00 +33°C° 0.1 mm 4 mps 757 mmHg 70%
    11:00 +34°C° 0.4 mm 4 mps 757 mmHg 68%
    12:00 +34°C° 0.4 mm 4 mps 756 mmHg 66%
    13:00 +35°C° 0.4 mm 4 mps 756 mmHg 65%
    14:00 +34°C° 0.2 mm 4 mps 755 mmHg 66%
    15:00 +34°C° 0.2 mm 4 mps 755 mmHg 68%
    16:00 +34°C° 0.2 mm 4 mps 755 mmHg 70%
    17:00 +32°C° 0.1 mm 4 mps 755 mmHg 75%
    18:00 +30°C° 0.1 mm 4 mps 756 mmHg 81%
    19:00 +28°C° 0.1 mm 3 mps 756 mmHg 87%
    20:00 +27°C° 0.1 mm 3 mps 757 mmHg 90%
    21:00 +26°C° 0.1 mm 3 mps 757 mmHg 93%
    22:00 +25°C° 0.1 mm 3 mps 757 mmHg 95%
    23:00 +25°C° 0.4 mm 3 mps 757 mmHg 95%

    28 January, Saturday

    Time Temperature Precipitation Wind Pressure Humidity
    00:00 +25°C° 0.4 mm 3 mps 757 mmHg 95%
    01:00 +25°C° 0.4 mm 3 mps 756 mmHg 95%
    02:00 +25°C° 0.5 mm 3 mps 756 mmHg 95%
    03:00 +25°C° 0.5 mm 3 mps 756 mmHg 96%
    04:00 +26°C° 0.5 mm 3 mps 756 mmHg 96%
    05:00 +26°C° 0.6 mm 3 mps 756 mmHg 95%
    06:00 +27°C° 0.6 mm 2 mps 757 mmHg 94%
    07:00 +27°C° 0.6 mm 2 mps 757 mmHg 93%
    08:00 +29°C° 0.1 mm 3 mps 757 mmHg 84%
    09:00 +31°C° 0.1 mm 3 mps 757 mmHg 75%
    10:00 +34°C° 0.1 mm 3 mps 757 mmHg 67%
    11:00 +35°C° 0 mm 3 mps 757 mmHg 63%
    12:00 +36°C° 0 mm 4 mps 756 mmHg 58%
    13:00 +37°C° 0 mm 4 mps 756 mmHg 54%
    14:00 +36°C° 0.1 mm 4 mps 756 mmHg 55%
    15:00 +36°C° 0.1 mm 4 mps 755 mmHg 57%
    16:00 +36°C° 0.1 mm 4 mps 755 mmHg 58%
    17:00 +34°C° 0.4 mm 4 mps 756 mmHg 68%
    18:00 +31°C° 0.4 mm 3 mps 756 mmHg 77%
    19:00 +29°C° 0.4 mm 3 mps 757 mmHg 87%
    20:00 +28°C° 0.4 mm 3 mps 757 mmHg 90%
    21:00 +28°C° 0.4 mm 3 mps 758 mmHg 93%
    22:00 +27°C° 0.4 mm 3 mps 758 mmHg 96%
    23:00 +27°C° 0.4 mm 3 mps 758 mmHg 96%
    Show more